Location: Unspecified
(33.9239°N, 118.0544°W)
Time: 22:58:18
(UTC-07:00)

Resurs 1-4 Rocket - Visible Passes

Search period start: 30 September 2014 00:00
Search period end: 10 October 2014 00:00
Orbit: 801 x 814 km, 98.3° (Epoch: 30 September)

Date Brightness Start Highest point End Pass type
(mag) Time Alt. Az. Time Alt. Az. Time Alt. Az.
30 Sep 3.6 04:12:09 10° NNE 04:16:58 34° E 04:20:27 17° SSE visible
30 Sep 3.1 05:52:20 10° NNW 05:56:36 25° WNW 06:00:51 10° WSW visible
01 Oct 4.4 03:48:37 10° NE 03:52:24 20° E 03:55:38 12° SE visible
01 Oct 2.5 05:27:23 10° N 05:32:22 42° WNW 05:36:44 13° SW visible
02 Oct 5.0 03:26:51 10° E 03:27:45 10° E 03:28:39 10° E visible
02 Oct 2.0 05:02:45 10° N 05:08:03 74° WNW 05:11:55 19° SSW visible
03 Oct 2.4 04:38:23 10° NNE 04:43:40 64° E 04:47:06 22° S visible
03 Oct 3.8 06:20:18 10° NW 06:22:55 14° WNW 06:25:32 10° W visible
04 Oct 3.5 04:14:19 10° NNE 04:19:11 36° E 04:22:17 20° SSE visible
04 Oct 3.2 05:54:39 10° NNW 05:58:47 24° WNW 06:02:55 10° WSW visible
05 Oct 4.3 03:50:42 10° NE 03:54:38 21° E 03:57:27 14° SE visible
05 Oct 2.5 05:29:38 10° N 05:34:34 40° WNW 05:38:32 15° SW visible
06 Oct 4.9 03:28:23 10° ENE 03:30:00 11° E 03:31:36 10° ESE visible
06 Oct 2.0 05:04:58 10° N 05:10:16 70° WNW 05:13:42 22° SSW visible
07 Oct 2.3 04:40:34 10° NNE 04:45:53 68° ESE 04:48:52 26° S visible
07 Oct 3.8 06:22:45 10° NW 06:25:05 13° WNW 06:27:25 10° W visible
08 Oct 3.3 04:16:28 10° NNE 04:21:25 38° E 04:24:02 24° SSE visible
08 Oct 3.3 05:56:57 10° NNW 06:00:58 22° WNW 06:04:59 10° WSW visible
09 Oct 4.2 03:52:47 10° NE 03:56:52 22° E 03:59:11 17° SE visible
09 Oct 2.6 05:31:54 10° N 05:36:46 37° WNW 05:40:16 17° SW visible
